Regional Weather Roundup
Issued by NWS

Home | Current Version | Previous Version | Text Only | Print | Product List | Glossary Off
Versions: 1 2 3 4 5 6 7 8 9 10 11 12 13 14 15 16 17 18 19 20 21 22 23 24 25 26 27 28 29 30 31 32 33 34 35 36 37 38 39 40 41 42 43 44 45 46 47 48 49 50

730
ASUS43 KMKX 221407
RWRWI

WISCONSIN REGIONAL WEATHER ROUNDUP
NATIONAL WEATHER SERVICE MILWAUKEE/SULLIVAN WI
900 AM CDT FRI MAY 22 2015

NOTE: "FAIR" INDICATES FEW OR NO CLOUDS BELOW 12,000 FEET WITH NO
SIGNIFICANT WEATHER AND/OR OBSTRUCTIONS TO VISIBILITY.

WIZ001-002-006>008-014>016-023>028-221500-
NORTHWEST WISCONSIN

CITY           SKY/WX    TMP DP  RH WIND       PRES   REMARKS
SUPERIOR ARPT  SUNNY     48  37  66 NE5       30.24R
ASHLAND        SUNNY     54  37  52 CALM      30.23R
HAYWARD        SUNNY     56  31  38 SW3       30.22R
SIREN          SUNNY     54  37  51 CALM      30.22R
CUMBERLAND     SUNNY     54  32  43 CALM      30.22R
RICE LAKE      SUNNY     53  39  59 CALM      30.23R
CHETEK         SUNNY     53  35  49 NE3       30.22R
LADYSMITH      SUNNY     53  39  59 CALM      30.23R
EAU CLAIRE       N/A     57  36  45 NE6       30.21R
MENOMONIE      SUNNY     55  38  53 NW5       30.21R
NEW RICHMOND   SUNNY     57  36  45 E3        30.21R
OSCEOLA        SUNNY     54  42  64 CALM      30.24R
$$

WIZ003>005-009-010-017-018-221500-
NORTH CENTRAL WISCONSIN

CITY           SKY/WX    TMP DP  RH WIND       PRES   REMARKS
MANITOWISH WTR SUNNY     49  33  54 W3        30.20S
ARBOR VITAE    SUNNY     52  37  56 CALM      30.20S
WOODRUFF       SUNNY     52  37  56 CALM      30.20S
RHINELANDER    SUNNY     54  33  45 W6        30.21R
EAGLE RIVER    SUNNY     50  29  43 SW3       30.20S
LAND O LAKES   SUNNY     51  26  37 SW3       30.21R
PHILLIPS       SUNNY     50  39  67 CALM      30.21R
TOMAHAWK       SUNNY     50  36  58 CALM      30.21S
MEDFORD        SUNNY     52  36  55 S6        30.21R
MERRILL        SUNNY     49  36  61 SW3       30.22S
$$

WIZ029-030-035-036-043>047-221500-
CENTRAL WISCONSIN

CITY           SKY/WX    TMP DP  RH WIND       PRES   REMARKS
WAUSAU         SUNNY     53  32  44 SW5       30.21R
MOSINEE        SUNNY     52  32  46 S7        30.23R
MARSHFIELD     SUNNY     55  33  43 S8        30.22R
STEVENS POINT  SUNNY     51  30  44 S5        30.23R
WAUPACA        SUNNY     55  24  30 CALM      30.23R
WAUTOMA        NOT AVBL
WISC RAPIDS    SUNNY     56  28  34 S5        30.24R
CAMP DOUGLAS   NOT AVBL
$$

WIZ011>013-019>022-031-037>040-048>050-221500-
NORTHEAST WISCONSIN

CITY           SKY/WX    TMP DP  RH WIND       PRES   REMARKS
ANTIGO         SUNNY     49  34  54 CALM      30.21S
SHAWANO        SUNNY     52  20  28 CALM      30.23R
OCONTO         SUNNY     50  25  37 CALM      30.22R
STURGEON BAY   SUNNY     48  27  43 NW7       30.25R
GREEN BAY      SUNNY     54  26  34 NE3       30.23R
MANITOWOC      NOT AVBL
APPLETON       SUNNY     50  32  50 CALM      30.23R
CLINTONVILLE   SUNNY     50  32  50 CALM      30.23R
OSHKOSH        SUNNY     54  30  40 E7        30.22R
$$

WIZ032>034-041-042-053>061-221500-
SOUTHWEST WISCONSIN

CITY           SKY/WX    TMP DP  RH WIND       PRES   REMARKS
LA CROSSE      SUNNY     58  44  60 E3        30.19S
SPARTA         SUNNY     56  39  54 CALM      30.21R
VIROQUA        SUNNY     56  38  50 SE10      30.20S
BOSCOBEL       SUNNY     59  39  47 VRB3      30.20F
PRAIRIE DU CHI SUNNY     54  44  70 E5        30.19S
PLATTEVILLE    SUNNY     56  38  50 E9        30.19S
$$

WIZ056-057-062-063-064-067-068-221500-
SOUTH CENTRAL WISCONSIN

CITY           SKY/WX    TMP DP  RH WIND       PRES   REMARKS
REEDSBURG      SUNNY     53  37  53 SE3       30.21R
BARABOO/DELLS  SUNNY     53  33  46 SE5       30.21S
LONE ROCK      NOT AVBL
MINERAL POINT  SUNNY     55  32  41 E6        30.20S
MADISON        SUNNY     56  31  38 SE7       30.21R
MIDDLETON      SUNNY     56  28  33 E5        30.21S
WATERTOWN      SUNNY     54  33  44 E5        30.21R
MONROE         SUNNY     54  34  47 E8        30.19S
JANESVILLE     SUNNY     59  28  31 E12       30.19R
$$

WIZ051-052-058>065-066-070>072-221500-
SOUTHEAST WISCONSIN

CITY           SKY/WX    TMP DP  RH WIND       PRES   REMARKS
MILWAUKEE      SUNNY     52  34  50 NE10      30.23R
WAUKESHA       SUNNY     54  28  37 E3        30.23R
MILWAUKEE/TIMM SUNNY     54  19  26 NE7       30.23R
RACINE         SUNNY     52  35  52 N8        30.24R
BURLINGTON     SUNNY     54  31  41 E6        30.21R
KENOSHA        SUNNY     56  31  38 E9        30.22R
FOND DU LAC    SUNNY     56  28  34 E3        30.23R
SHEBOYGAN      SUNNY     52  29  41 CALM      30.23R
WEST BEND      SUNNY     52  28  40 E5        30.22R
JUNEAU         SUNNY     53  29  40 E5        30.23R
$$

LSZ147-162-221500-
LAKE SUPERIOR

STATION/POSITION TIME  TEMP    WIND        PRES    WAVE
                       AIR SEA DIR/SP/G            HT/PER
                 (UTC) (F)     (DEG/KT/KT) (MB)    (FT/S)
W MID LAKE BUOY  1250   37 36   60/  8/  8   N/A     0
DEVILS ISLAND    1300   41     350/  2/  3   N/A
PORT WING        1300   43     360/  2/  3   N/A
SAXON HARBOR     1300   46        CALM       N/A
$$

LMZ867-665-643>646-221500-
LAKE MICHIGAN

STATION/POSITION TIME  TEMP    WIND        PRES    WAVE
                       AIR SEA DIR/SP/G            HT/PER
                 (UTC) (F)     (DEG/KT/KT) (MB)    (FT/S)
CHAMBERS ISLAND  1300   46      10/  6/  8   N/A
N MID LAKE BUOY  1250   38 36  350/  6/  6   N/A     1
NORTHPORT PIER   1300   45     350/  3/  4   N/A
SISTER BAY       1317   50     360/  9/ 11   N/A
KEWAUNEE LAKESHO 1300           30/  1/  5   N/A
SHEBOYGAN LAKESH 1300          360/  7/  7   N/A
PORT WASHINGTON  1300   51      30/  4/  6   N/A
ATWATER BUOY     1300   46 44   20/ 10/ 12   N/A
MILWAUKEE LAKESH 1300   47      30/ 11/ 13   N/A
S MID LAKE BUOY  1250   41 38  360/ 10/ 10   N/A     1/ 4
KENOSHA   LAKESH 1300   48      10/  8/ 11   N/A
$$

TC  - TEMPERATURE IN CELSIUS
VSB - VISIBILITY IN STATUTE MILES
WCI - WIND CHILL INDEX
HX  - HEAT INDEX




USA.gov is the U.S. government's official web portal to all federal, state and local government web resources and services.